Regional Weather Roundup
Issued by NWS Charleston, SC

Current Version | Previous Version | Text Only | Print | Product List | Glossary Off
Versions: 1 2 3 4 5 6 7 8 9 10 11 12 13 14 15 16 17 18 19 20 21 22 23 24 25 26 27 28 29 30 31 32 33 34 35 36 37 38 39 40 41 42 43 44 45 46 47 48 49 50

000
ASUS42 KCHS 250113
RWRCHS

REGIONAL WEATHER ROUNDUP
NATIONAL WEATHER SERVICE CHARLESTON SC
900 PM EDT SUN JUL 24 2016

NOTE: "FAIR" INDICATES FEW OR NO CLOUDS BELOW 12,000 FEET WITH NO
SIGNIFICANT WEATHER AND/OR OBSTRUCTIONS TO VISIBILITY.

NOT ALL STATIONS ARE QUALITY CONTROLLED. USE DATA WITH CAUTION...
ESPECIALLY DEWPOINT OBSERVATIONS.

SCZ027-030-031-034>040-042>050-250200-
...SOUTHEAST SOUTH CAROLINA...

CITY           SKY/WX    TMP DP  RH WIND       PRES   REMARKS
N CHARLESTON   PTCLDY    83  76  79 S8        30.03R HX  91
WATERFRONT PRK   N/A     85  78  79 S7        30.01R HX  97
MOUNT PLEASANT FAIR      82  79  89 CALM      30.04R HX  93
JOHNS ISLAND   FAIR      84  77  79 S8        30.03S HX  94
PINOPOLIS        N/A     82  75  78 VRB2      29.95R
MONCKS CORNER  FAIR      79  73  83 CALM      30.03R
SUMMERVILLE    NOT AVBL
BEAUFORT MCAS  MOCLDY    85  75  72 S3        30.03R HX  93
BEAUFORT ARPT  FAIR      84  73  70 S6        30.03R HX  91
HILTON HEAD IS CLEAR     86  73  66 VRB7      30.04S HX  93
WALTERBORO     CLOUDY    86  73  66 SE6       30.03R HX  93
ALLENDALE      FAIR      86  75  70 CALM      30.02R HX  95

...SOUTHERN MIDLANDS AND PEE DEE...

CITY           SKY/WX    TMP DP  RH WIND       PRES   REMARKS
GEORGETOWN     FAIR      81  75  83 S6        30.04R
KINGSTREE      FAIR      81  73  78 SE5       30.02R
ORANGEBURG     CLEAR     85  77  77 SE5       30.02R HX  95
BARNWELL       NOT AVBL
AIKEN          MOCLDY    79  73  83 CALM      30.05R
MANNING        FAIR      81  73  78 SE3       30.02R
COLUMBIA       PTCLDY    88  73  61 SE3       29.99R HX  95
SUMTER         CLEAR     85  74  69 SE6       29.99R HX  92
FLORENCE       CLEAR     85  76  74 S6        30.02R HX  94
MYRTLE BEACH   CLEAR     84  72  65 MISG      30.04R
N MYRTLE BEACH CLEAR     84  78  82 SW13      30.02R HX  95

$$

GAZ063-065-086>088-099>101-113>116-118-119-134>141-150-250200-
...SOUTHEAST GEORGIA...

CITY           SKY/WX    TMP DP  RH WIND       PRES   REMARKS
SAVANNAH ARPT  PTCLDY    83  73  72 S5        30.03R
HUNTER AAF     CLEAR     84  76  77 VRB6      30.01R HX  94
FORT STEWART   CLEAR     78  75  90 CALM      30.00R
STATESBORO     CLEAR     82  75  77 S3        30.02S
SYLVANIA       NOT AVBL
CLAXTON        FAIR      81  75  83 CALM      30.02R HAZE

...CSRA...CENTRAL AND FAR SOUTHEAST GEORGIA...

CITY           SKY/WX    TMP DP  RH WIND       PRES   REMARKS
THOMSON        NOT AVBL
AUGUSTA-BUSH   CLEAR     83  75  77 S3        29.99R HX  90
AUGUSTA-DANIEL PTCLDY    91  71  51 SE6       30.01R HX  97
SWAINSBORO     FAIR      77  72  83 CALM      30.04F
VIDALIA        MOCLDY    84  68  58 CALM      30.04R
EASTMAN        MOCLDY    89  59  35 E10       30.04R
HAZLEHURST     FAIR      85  73  66 CALM      30.01R HX  91
ALMA           PTCLDY    81  71  71 SE3       30.01S
WAYCROSS       CLEAR     80  79  98 CALM      30.02S
JESUP          FAIR      79  79 100 CALM      30.03R
BAXLEY         MOCLDY    82  75  78 CALM      30.02R
BRUNSWICK      CLEAR     86  77  74 SE6       30.05R HX  97
SAINT SIMONS   CLEAR     85  73  67 S12       30.03R HX  91

$$

SCZ027-028-034-036>038-045-046-048>050-GAZ119-141-250200-
...LAKE AND SUPPLEMENTAL COASTAL OBSERVATIONS...

STATION/POSITION TIME  TEMP    WIND        PRES    WAVE   SWELL
                       AIR SEA DIR/SP/G            HT/PER HT/PER/DIR
                 (UTC) (F)     (DEG/KT/KT) (MB)    (FT/S) (FT/S/D)
WINYAH BAY       NOT AVBL
LAKE MURRAY      0000   92     170/  4/  5 1014.6R
ACE BASIN NERRS  NOT AVBL
FORT PULASKI     0000   86 88                N/A
SAPELO ISLAND    0000   87     150/  8     1017.0R

$$

ANZ835-935-AMZ111-154-330-350-352-354-370-450-454-472-250200-
...C-MAN AND BUOY OBSERVATIONS...

STATION/POSITION TIME  TEMP    WIND        PRES    WAVE   SWELL
                       AIR SEA DIR/SP/G            HT/PER HT/PER/DIR
                 (UTC) (F)     (DEG/KT/KT) (MB)    (FT/S) (FT/S/D)
BUOY 41004       0050   85 86  190/ 10/ 12 1016.7S   2/ 9   2/130/ 9
BUOY 41008       0050   85 87  150/ 12/ 14 1017.0R   2/ 8   2/ 90/ 8
FOLLY BEACH CMAN 0100   84     190/ 13/ 14 1017.2R
CAPERS NEARSHORE 0008   85 84  190/ 10/ 14 1016.6R
FRIPP NEARSHORE  0008   86 87  180/ 12/ 16 1016.1R


STATION/POSITION TIME  TEMP    WIND        PRES    WAVE   SWELL
                       AIR SEA DIR/SP/G            HT/PER HT/PER/DIR
                 (UTC) (F)     (DEG/KT/KT) (MB)    (FT/S) (FT/S/D)
5E ST. MARYS GA  0001      87                N/A     3/ 8
FRYING PAN BUOY  0000   85 86  200/ 10/ 12 1016.9R
BUOY 41025       0050   85 85  230/ 12/ 14 1016.8S   2/ 8   2/120/ 8
CAPE LOOKOUT NC  0100   84     210/ 10/ 13 1016.9R
BUOY 41002       0050   84 85  200/  2/  4 1018.7R   2/ 8   2/ 90/ 8
BUOY 41010       0050   85 87  140/  6/  8 1018.0R   3/ 8   3/100/ 8
ST AUGUSTINE FL  0100   84 87  150/ 15/ 17 1018.1R


$$




USA.gov is the U.S. government's official web portal to all federal, state and local government web resources and services.